Time,TemperatureF,DewpointF,PressureIn,WindDirection,WindDirectionDegrees,WindSpeedMPH,WindSpeedGustMPH,Humidity,HourlyPrecipIn,Conditions,Clouds,dailyrainin,SolarRadiationWatts/m^2,SoftwareType,DateUTC
2013-11-21 00:21:00,46.0,46.0,-100.00,NE,53,0.0,5.0,100,0.03,,,0.16,0.000000,,2013-11-21 08:21:00,
2013-11-21 00:32:00,46.0,46.0,-100.00,NE,53,0.0,5.0,100,0.03,,,0.16,0.000000,,2013-11-21 08:32:00,
2013-11-21 00:42:00,46.0,46.0,-100.00,NE,53,0.0,5.0,100,0.03,,,0.16,0.000000,,2013-11-21 08:42:00,
2013-11-21 00:52:00,46.0,46.0,-100.00,NE,53,0.0,5.0,100,0.03,,,0.16,0.000000,,2013-11-21 08:52:00,
2013-11-21 01:22:00,46.0,46.0,-100.00,ESE,109,1.0,5.0,100,0.00,,,0.16,0.000000,,2013-11-21 09:22:00,
2013-11-21 01:33:00,46.0,46.0,-100.00,ESE,109,1.0,5.0,100,0.00,,,0.16,0.000000,,2013-11-21 09:33:00,
2013-11-21 01:43:00,46.0,46.0,-100.00,ESE,109,1.0,5.0,100,0.00,,,0.16,0.000000,,2013-11-21 09:43:00,
2013-11-21 01:53:00,46.0,46.0,-100.00,ESE,109,1.0,5.0,100,0.00,,,0.16,0.000000,,2013-11-21 09:53:00,
2013-11-21 02:23:00,45.0,45.0,-100.00,NE,43,0.0,4.0,100,0.00,,,0.16,0.000000,,2013-11-21 10:23:00,
2013-11-21 02:33:00,45.0,45.0,-100.00,NE,43,0.0,4.0,100,0.00,,,0.16,0.000000,,2013-11-21 10:33:00,
2013-11-21 02:42:00,45.0,45.0,-100.00,NE,43,0.0,4.0,100,0.00,,,0.16,0.000000,,2013-11-21 10:42:00,
2013-11-21 02:53:00,45.0,45.0,-100.00,NE,43,0.0,4.0,100,0.00,,,0.16,0.000000,,2013-11-21 10:53:00,
2013-11-21 03:22:00,44.0,44.0,-100.00,East,94,0.0,2.0,100,0.00,,,-99.99,0.000000,,2013-11-21 11:22:00,
2013-11-21 03:33:00,44.0,44.0,-100.00,East,94,0.0,2.0,100,0.00,,,-99.99,0.000000,,2013-11-21 11:33:00,
2013-11-21 03:43:00,44.0,44.0,-100.00,East,94,0.0,2.0,100,0.00,,,-99.99,0.000000,,2013-11-21 11:43:00,
2013-11-21 03:52:00,44.0,44.0,-100.00,East,94,0.0,2.0,100,0.00,,,-99.99,0.000000,,2013-11-21 11:52:00,
2013-11-21 04:21:00,46.0,46.0,-100.00,North,349,0.0,0.0,100,0.02,,,0.18,0.000000,,2013-11-21 12:21:00,
2013-11-21 04:32:00,46.0,46.0,-100.00,North,349,0.0,0.0,100,0.02,,,0.18,0.000000,,2013-11-21 12:32:00,
2013-11-21 04:42:00,46.0,46.0,-100.00,North,349,0.0,0.0,100,0.02,,,0.18,0.000000,,2013-11-21 12:42:00,
2013-11-21 04:52:00,46.0,46.0,-100.00,North,349,0.0,0.0,100,0.02,,,0.18,0.000000,,2013-11-21 12:52:00,
2013-11-21 05:21:00,46.0,46.0,-100.00,SE,126,0.0,0.0,100,0.08,,,0.25,0.000000,,2013-11-21 13:21:00,
2013-11-21 05:32:00,46.0,46.0,-100.00,SE,126,0.0,0.0,100,0.08,,,0.25,0.000000,,2013-11-21 13:32:00,
2013-11-21 05:42:00,46.0,46.0,-100.00,SE,126,0.0,0.0,100,0.08,,,0.25,0.000000,,2013-11-21 13:42:00,
2013-11-21 05:52:00,46.0,46.0,-100.00,SE,126,0.0,0.0,100,0.08,,,0.25,0.000000,,2013-11-21 13:52:00,
2013-11-21 06:22:00,44.0,44.0,-100.00,NE,50,0.0,4.0,100,0.01,,,0.26,0.000000,,2013-11-21 14:22:00,
2013-11-21 06:32:00,44.0,44.0,-100.00,NE,50,0.0,4.0,100,0.01,,,0.26,0.000000,,2013-11-21 14:32:00,
2013-11-21 06:42:00,44.0,44.0,-100.00,NE,50,0.0,4.0,100,0.01,,,0.26,0.000000,,2013-11-21 14:42:00,
2013-11-21 06:52:00,44.0,44.0,-100.00,NE,50,0.0,4.0,100,0.01,,,0.26,0.000000,,2013-11-21 14:52:00,
2013-11-21 07:22:00,44.0,44.0,-100.00,WSW,252,0.0,0.0,100,0.07,,,0.33,1.000000,,2013-11-21 15:22:00,
2013-11-21 07:33:00,44.0,44.0,-100.00,WSW,252,0.0,0.0,100,0.07,,,0.33,1.000000,,2013-11-21 15:33:00,
2013-11-21 07:43:00,44.0,44.0,-100.00,WSW,252,0.0,0.0,100,0.07,,,0.33,1.000000,,2013-11-21 15:43:00,
2013-11-21 07:53:00,44.0,44.0,-100.00,WSW,252,0.0,0.0,100,0.07,,,0.33,1.000000,,2013-11-21 15:53:00,
2013-11-21 08:23:00,46.0,46.0,-100.00,East,99,0.0,0.0,100,0.08,,,0.41,32.000000,,2013-11-21 16:23:00,
2013-11-21 08:33:00,46.0,46.0,-100.00,East,99,0.0,0.0,100,0.08,,,0.41,32.000000,,2013-11-21 16:33:00,
2013-11-21 08:42:00,46.0,46.0,-100.00,East,99,0.0,0.0,100,0.08,,,0.41,32.000000,,2013-11-21 16:42:00,
2013-11-21 08:53:00,46.0,46.0,-100.00,East,99,0.0,0.0,100,0.08,,,0.41,32.000000,,2013-11-21 16:53:00,
2013-11-21 09:22:00,49.0,47.0,-100.00,South,187,0.0,0.0,94,0.00,,,0.41,165.000000,,2013-11-21 17:22:00,
2013-11-21 09:33:00,49.0,47.0,-100.00,South,187,0.0,0.0,94,0.00,,,0.41,165.000000,,2013-11-21 17:33:00,
2013-11-21 09:42:00,49.0,47.0,-100.00,South,187,0.0,0.0,94,0.00,,,0.41,165.000000,,2013-11-21 17:42:00,
2013-11-21 09:52:00,49.0,47.0,-100.00,South,187,0.0,0.0,94,0.00,,,0.41,165.000000,,2013-11-21 17:52:00,
2013-11-21 10:22:00,48.0,48.0,-100.00,West,269,2.0,3.0,99,0.00,,,0.41,241.000000,,2013-11-21 18:22:00,
2013-11-21 10:32:00,48.0,48.0,-100.00,West,269,2.0,3.0,99,0.00,,,0.41,241.000000,,2013-11-21 18:32:00,
2013-11-21 10:42:00,48.0,48.0,-100.00,West,269,2.0,3.0,99,0.00,,,0.41,241.000000,,2013-11-21 18:42:00,
2013-11-21 10:52:00,48.0,48.0,-100.00,West,269,2.0,3.0,99,0.00,,,0.41,241.000000,,2013-11-21 18:52:00,
2013-11-21 11:22:00,46.0,46.0,-100.00,West,270,2.0,6.0,100,0.01,,,0.42,202.000000,,2013-11-21 19:22:00,
2013-11-21 11:32:00,46.0,46.0,-100.00,West,270,2.0,6.0,100,0.01,,,0.42,202.000000,,2013-11-21 19:32:00,
2013-11-21 11:42:00,46.0,46.0,-100.00,West,270,2.0,6.0,100,0.01,,,0.42,202.000000,,2013-11-21 19:42:00,
2013-11-21 11:52:00,46.0,46.0,-100.00,West,270,2.0,6.0,100,0.01,,,0.42,202.000000,,2013-11-21 19:52:00,
2013-11-21 12:21:00,47.0,47.0,-100.00,WNW,287,1.0,6.0,100,0.19,,,0.61,143.000000,,2013-11-21 20:21:00,
2013-11-21 12:32:00,47.0,47.0,-100.00,WNW,287,1.0,6.0,100,0.19,,,0.61,143.000000,,2013-11-21 20:32:00,
2013-11-21 12:42:00,47.0,47.0,-100.00,WNW,287,1.0,6.0,100,0.19,,,0.61,143.000000,,2013-11-21 20:42:00,
2013-11-21 12:52:00,47.0,47.0,-100.00,WNW,287,1.0,6.0,100,0.19,,,0.61,143.000000,,2013-11-21 20:52:00,
2013-11-21 13:22:00,45.0,45.0,-100.00,SW,234,0.0,8.0,100,0.02,,,0.63,98.000000,,2013-11-21 21:22:00,
2013-11-21 13:34:00,45.0,45.0,-100.00,SW,234,0.0,8.0,100,0.02,,,0.63,98.000000,,2013-11-21 21:34:00,
2013-11-21 13:43:00,45.0,45.0,-100.00,SW,234,0.0,8.0,100,0.02,,,0.63,98.000000,,2013-11-21 21:43:00,
2013-11-21 13:54:00,45.0,45.0,-100.00,SW,234,0.0,8.0,100,0.02,,,0.63,98.000000,,2013-11-21 21:54:00,
2013-11-21 14:23:00,47.0,47.0,-100.00,West,262,1.0,6.0,100,0.02,,,0.65,102.000000,,2013-11-21 22:23:00,
2013-11-21 14:33:00,47.0,47.0,-100.00,West,262,1.0,6.0,100,0.02,,,0.65,102.000000,,2013-11-21 22:33:00,
2013-11-21 14:42:00,47.0,47.0,-100.00,West,262,1.0,6.0,100,0.02,,,0.65,102.000000,,2013-11-21 22:42:00,
2013-11-21 14:53:00,47.0,47.0,-100.00,West,262,1.0,6.0,100,0.02,,,0.65,102.000000,,2013-11-21 22:53:00,
2013-11-21 15:22:00,46.0,46.0,-100.00,SW,235,2.0,5.0,100,0.03,,,0.68,81.000000,,2013-11-21 23:22:00,
2013-11-21 15:33:00,46.0,46.0,-100.00,SW,235,2.0,5.0,100,0.03,,,0.68,81.000000,,2013-11-21 23:33:00,
2013-11-21 15:42:00,46.0,46.0,-100.00,SW,235,2.0,5.0,100,0.03,,,0.68,81.000000,,2013-11-21 23:42:00,
2013-11-21 15:53:00,46.0,46.0,-100.00,SW,235,2.0,5.0,100,0.03,,,0.68,81.000000,,2013-11-21 23:53:00,
2013-11-21 16:22:00,44.0,44.0,-100.00,WSW,243,0.0,5.0,100,0.01,,,0.69,46.000000,,2013-11-22 00:22:00,
2013-11-21 16:32:00,44.0,44.0,-100.00,WSW,243,0.0,5.0,100,0.01,,,0.69,46.000000,,2013-11-22 00:32:00,
2013-11-21 16:42:00,44.0,44.0,-100.00,WSW,243,0.0,5.0,100,0.01,,,0.69,46.000000,,2013-11-22 00:42:00,
2013-11-21 16:52:00,44.0,44.0,-100.00,WSW,243,0.0,5.0,100,0.01,,,0.69,46.000000,,2013-11-22 00:52:00,
2013-11-21 17:22:00,44.0,44.0,-100.00,West,280,0.0,3.0,100,0.00,,,0.69,15.000000,,2013-11-22 01:22:00,
2013-11-21 17:32:00,44.0,44.0,-100.00,West,280,0.0,3.0,100,0.00,,,0.69,15.000000,,2013-11-22 01:32:00,
2013-11-21 17:42:00,44.0,44.0,-100.00,West,280,0.0,3.0,100,0.00,,,0.69,15.000000,,2013-11-22 01:42:00,
2013-11-21 17:52:00,44.0,44.0,-100.00,West,280,0.0,3.0,100,0.00,,,0.69,15.000000,,2013-11-22 01:52:00,
2013-11-21 18:21:00,44.0,44.0,-100.00,South,179,1.0,5.0,100,0.19,,,0.88,0.000000,,2013-11-22 02:21:00,
2013-11-21 18:32:00,44.0,44.0,-100.00,South,179,1.0,5.0,100,0.19,,,0.88,0.000000,,2013-11-22 02:32:00,
2013-11-21 18:42:00,44.0,44.0,-100.00,South,179,1.0,5.0,100,0.19,,,0.88,0.000000,,2013-11-22 02:42:00,
2013-11-21 18:53:00,44.0,44.0,-100.00,South,179,1.0,5.0,100,0.19,,,0.88,0.000000,,2013-11-22 02:53:00,
2013-11-21 19:21:00,43.0,43.0,-100.00,SSE,147,0.0,8.0,100,0.04,,,0.92,0.000000,,2013-11-22 03:21:00,
2013-11-21 19:33:00,43.0,43.0,-100.00,SSE,147,0.0,8.0,100,0.04,,,0.92,0.000000,,2013-11-22 03:33:00,
2013-11-21 19:43:00,43.0,43.0,-100.00,SSE,147,0.0,8.0,100,0.04,,,0.92,0.000000,,2013-11-22 03:43:00,
2013-11-21 19:53:00,43.0,43.0,-100.00,SSE,147,0.0,8.0,100,0.04,,,0.92,0.000000,,2013-11-22 03:53:00,
2013-11-21 20:23:00,43.0,43.0,-100.00,North,353,0.0,3.0,100,0.00,,,0.92,0.000000,,2013-11-22 04:23:00,
2013-11-21 20:33:00,43.0,43.0,-100.00,North,353,0.0,3.0,100,0.00,,,0.92,0.000000,,2013-11-22 04:33:00,
2013-11-21 20:43:00,43.0,43.0,-100.00,North,353,0.0,3.0,100,0.00,,,0.92,0.000000,,2013-11-22 04:43:00,
2013-11-21 20:52:00,43.0,43.0,-100.00,North,353,0.0,3.0,100,0.00,,,0.92,0.000000,,2013-11-22 04:52:00,
2013-11-21 21:22:00,42.0,42.0,-100.00,WSW,251,0.0,3.0,100,0.00,,,0.92,0.000000,,2013-11-22 05:22:00,
2013-11-21 21:32:00,42.0,42.0,-100.00,WSW,251,0.0,3.0,100,0.00,,,0.92,0.000000,,2013-11-22 05:32:00,
2013-11-21 21:43:00,42.0,42.0,-100.00,WSW,251,0.0,3.0,100,0.00,,,0.92,0.000000,,2013-11-22 05:43:00,
2013-11-21 21:52:00,42.0,42.0,-100.00,WSW,251,0.0,3.0,100,0.00,,,0.92,0.000000,,2013-11-22 05:52:00,
2013-11-21 22:21:00,43.0,43.0,-100.00,WSW,258,0.0,4.0,100,0.00,,,0.90,0.000000,,2013-11-22 06:21:00,
2013-11-21 22:32:00,43.0,43.0,-100.00,WSW,258,0.0,4.0,100,0.00,,,0.90,0.000000,,2013-11-22 06:32:00,
2013-11-21 22:42:00,43.0,43.0,-100.00,WSW,258,0.0,4.0,100,0.00,,,0.90,0.000000,,2013-11-22 06:42:00,
2013-11-21 22:52:00,43.0,43.0,-100.00,WSW,258,0.0,4.0,100,0.00,,,0.90,0.000000,,2013-11-22 06:52:00,
2013-11-21 23:21:00,42.0,42.0,-100.00,ESE,114,2.0,5.0,100,0.00,,,0.80,0.000000,,2013-11-22 07:21:00,
2013-11-21 23:32:00,42.0,42.0,-100.00,ESE,114,2.0,5.0,100,0.00,,,0.80,0.000000,,2013-11-22 07:32:00,
2013-11-21 23:41:00,42.0,42.0,-100.00,ESE,114,2.0,5.0,100,0.00,,,0.80,0.000000,,2013-11-22 07:41:00,
2013-11-21 23:52:00,42.0,42.0,-100.00,ESE,114,2.0,5.0,100,0.00,,,0.80,0.000000,,2013-11-22 07:52:00,